Simultaneous Nadir Overpasses (SNOs) Predictions

Prediction of SNOs between METOP-A and NPP Satellite Orbit:

Table of predicted SNOs for the next 14.0 days since TLE Epoch: 8/13/2016
Index Date (METOP-A) Time (METOP-A) Lat,Lon (METOP-A) SZA (METOP-A ) Date (NPP) Time (NPP) Lat,Lon (NPP) SZA (NPP ) Distance(km) Time Diff (sec)
1 08/13/2016 22:49:59 -72.82, 9.22 121.32 08/13/2016 22:50:47 -72.82, 9.17 121.32 1.66 48
2 08/13/2016 23:40:39 72.79, 176.48 58.67 08/13/2016 23:41:32 72.78, 176.56 58.65 2.66 53
3 08/14/2016 00:31:21 -72.80, -16.17 121.31 08/14/2016 00:32:16 -72.78, -16.12 121.35 2.68 55
4 08/14/2016 01:22:00 72.81, 151.20 58.71 08/14/2016 01:23:02 72.79, 151.17 58.68 2.71 62
5 08/14/2016 02:12:42 -72.78, -41.56 121.31 08/14/2016 02:13:45 -72.79, -41.51 121.32 2.15 63
6 08/14/2016 03:03:21 72.79, 125.81 58.72 08/14/2016 03:04:31 72.80, 125.78 58.71 1.22 70
7 08/14/2016 03:54:03 -72.80, -66.84 121.27 08/14/2016 03:55:15 -72.79, -66.89 121.29 2.08 72
8 08/14/2016 04:44:46 72.62, 100.11 58.58 08/14/2016 04:45:58 72.65, 100.71 58.57 20.27 72
9 08/14/2016 05:35:29 -72.58, -92.64 121.44 08/14/2016 05:36:41 -72.60, -91.87 121.48 25.92 72
10 08/14/2016 06:26:13 72.34, 74.21 58.36 08/14/2016 06:27:22 72.35, 75.93 58.27 58.05 69
11 08/14/2016 07:16:57 -72.25,-118.63 121.71 08/14/2016 07:18:05 -72.30,-116.65 121.78 67.55 68
12 08/14/2016 08:07:41 72.01, 48.24 58.10 08/14/2016 08:08:46 72.05, 51.14 57.96 99.83 65




NCC Satellite Simultaneous Nadir Overpasses (SNOs) Prediction Service
